UPS239 KSDF-KPHL

Flight info

Callsign UPS239
Flight time 1h 15m
Altitude 35000
Route EEVAA1 SHIPR SITTR Q34 GVE PAATS4
Aircraft B748/H-SDE3FGHIM1M2RWXY/LB1

Departure

Time 2026-05-08 02:14
Airport Louisville Muhammad Ali International Airport (KSDF)

Arrival

Time 2026-05-08 03:29
Airport Philadelphia International Airport (KPHL)
Time Latitude Longitude Altitude Speed Heading
2026-05-08 02:03 38.16060 -85.73670 498 ft 0 kts 270°
2026-05-08 02:07 38.16060 -85.73682 482 ft 0 kts 270°
2026-05-08 02:08 38.16060 -85.73683 498 ft 0 kts 270°
2026-05-08 02:10 38.16060 -85.73684 498 ft 0 kts 270°
2026-05-08 02:10 38.16060 -85.73695 498 ft 2 kts 270°
2026-05-08 02:10 38.16058 -85.73719 492 ft 3 kts 251°
2026-05-08 02:11 38.16033 -85.73733 496 ft 5 kts 176°
2026-05-08 02:11 38.15974 -85.73716 493 ft 0 kts 166°
2026-05-08 02:12 38.15968 -85.73714 487 ft 6 kts 166°
2026-05-08 02:12 38.15903 -85.73706 492 ft 8 kts 194°
2026-05-08 02:12 38.15869 -85.73766 488 ft 13 kts 248°
2026-05-08 02:13 38.15839 -85.73898 490 ft 11 kts 277°
2026-05-08 02:13 38.15868 -85.73939 486 ft 7 kts 330°
2026-05-08 02:13 38.16029 -85.73998 485 ft 57 kts 346°
2026-05-08 02:13 38.16733 -85.74228 489 ft 152 kts 345°
2026-05-08 02:14 38.18020 -85.74647 670 ft 216 kts 347°
2026-05-08 02:14 38.19464 -85.75081 1208 ft 215 kts 345°
2026-05-08 02:14 38.20849 -85.75801 2205 ft 212 kts 326°
2026-05-08 02:14 38.22156 -85.76787 2950 ft 230 kts 328°
2026-05-08 02:15 38.23596 -85.77841 3576 ft 248 kts 328°
2026-05-08 02:15 38.25135 -85.78963 4525 ft 259 kts 328°
2026-05-08 02:15 38.26783 -85.79827 5614 ft 265 kts 350°
2026-05-08 02:15 38.28627 -85.79661 6737 ft 271 kts 15°
2026-05-08 02:16 38.30250 -85.78407 7784 ft 280 kts 42°
2026-05-08 02:16 38.31441 -85.76407 8799 ft 286 kts 52°
2026-05-08 02:16 38.32443 -85.74191 9721 ft 294 kts 64°
2026-05-08 02:16 38.32790 -85.71573 10550 ft 309 kts 90°
2026-05-08 02:17 38.32291 -85.68865 11284 ft 320 kts 109°
2026-05-08 02:17 38.31390 -85.66240 12015 ft 327 kts 116°
2026-05-08 02:17 38.30081 -85.63855 12767 ft 332 kts 140°
2026-05-08 02:17 38.28244 -85.62069 13501 ft 334 kts 150°
2026-05-08 02:18 38.26275 -85.60442 14191 ft 340 kts 152°
2026-05-08 02:18 38.24292 -85.58746 14858 ft 346 kts 149°
2026-05-08 02:18 38.22401 -85.56780 15453 ft 357 kts 144°
2026-05-08 02:18 38.20455 -85.54711 15860 ft 372 kts 146°
2026-05-08 02:19 38.18386 -85.52592 16192 ft 391 kts 146°
2026-05-08 02:19 38.16227 -85.50363 16623 ft 408 kts 146°
2026-05-08 02:19 38.14012 -85.48032 17261 ft 418 kts 146°
2026-05-08 02:19 38.11755 -85.45662 18001 ft 425 kts 146°
2026-05-08 02:20 38.09446 -85.43264 18712 ft 431 kts 147°
2026-05-08 02:20 38.07106 -85.40839 19432 ft 437 kts 147°
2026-05-08 02:20 38.04736 -85.38374 20147 ft 443 kts 147°
2026-05-08 02:20 38.02373 -85.35916 20860 ft 448 kts 148°
2026-05-08 02:21 37.99950 -85.33398 21578 ft 454 kts 147°
2026-05-08 02:21 37.97700 -85.30500 22272 ft 470 kts 134°
2026-05-08 02:21 37.95905 -85.26978 22957 ft 484 kts 120°
2026-05-08 02:21 37.94685 -85.22944 23591 ft 495 kts 106°
2026-05-08 02:22 37.93915 -85.18665 24105 ft 502 kts 103°
2026-05-08 02:22 37.93196 -85.14311 24612 ft 508 kts 103°
2026-05-08 02:22 37.92477 -85.09890 25116 ft 513 kts 103°
2026-05-08 02:22 37.91911 -85.05418 25616 ft 518 kts 92°
2026-05-08 02:23 37.92014 -85.00851 26111 ft 520 kts 82°
2026-05-08 02:23 37.92399 -84.96275 26584 ft 525 kts 81°
2026-05-08 02:23 37.92827 -84.91658 27068 ft 530 kts 80°
2026-05-08 02:23 37.93252 -84.87059 27552 ft 535 kts 81°
2026-05-08 02:24 37.93659 -84.82344 28040 ft 540 kts 81°
2026-05-08 02:24 37.94062 -84.77597 28525 ft 545 kts 81°
2026-05-08 02:24 37.94484 -84.72799 28998 ft 549 kts 81°
2026-05-08 02:24 37.94913 -84.67959 29481 ft 554 kts 81°
2026-05-08 02:25 37.95333 -84.63094 29977 ft 559 kts 81°
2026-05-08 02:25 37.95750 -84.58173 30387 ft 564 kts 81°
2026-05-08 02:25 37.96174 -84.53205 30761 ft 569 kts 81°
2026-05-08 02:25 37.96572 -84.48197 31130 ft 575 kts 85°
2026-05-08 02:26 37.96519 -84.43169 31488 ft 581 kts 92°
2026-05-08 02:26 37.96291 -84.37970 31840 ft 586 kts 94°
2026-05-08 02:26 37.96035 -84.32856 32178 ft 591 kts 93°
2026-05-08 02:26 37.95812 -84.27635 32517 ft 596 kts 92°
2026-05-08 02:27 37.95611 -84.22360 32846 ft 602 kts 93°
2026-05-08 02:27 37.95383 -84.17042 33174 ft 607 kts 94°
2026-05-08 02:27 37.95129 -84.11676 33505 ft 612 kts 94°
2026-05-08 02:27 37.94881 -84.06274 33836 ft 617 kts 94°
2026-05-08 02:28 37.94648 -84.00836 34256 ft 619 kts 94°
2026-05-08 02:28 37.94407 -83.95388 34685 ft 620 kts 94°
2026-05-08 02:28 37.94151 -83.89949 34999 ft 619 kts 94°
2026-05-08 02:28 37.93891 -83.84499 35030 ft 619 kts 94°
2026-05-08 02:29 37.93386 -83.73613 35033 ft 617 kts 94°
2026-05-08 02:29 37.92860 -83.62756 35033 ft 617 kts 94°
2026-05-08 02:30 37.92335 -83.51977 35029 ft 618 kts 94°
2026-05-08 02:30 37.91790 -83.41097 35041 ft 618 kts 94°
2026-05-08 02:31 37.91238 -83.30219 35045 ft 618 kts 94°
2026-05-08 02:31 37.90675 -83.19345 35043 ft 618 kts 94°
2026-05-08 02:32 37.90107 -83.08549 35028 ft 619 kts 95°
2026-05-08 02:32 37.89523 -82.97674 35029 ft 618 kts 95°
2026-05-08 02:33 37.88930 -82.86793 35043 ft 619 kts 95°
2026-05-08 02:33 37.88326 -82.75906 35047 ft 619 kts 95°
2026-05-08 02:34 37.87712 -82.65009 35055 ft 620 kts 95°
2026-05-08 02:34 37.87088 -82.54127 35051 ft 620 kts 95°
2026-05-08 02:35 37.86454 -82.43245 35008 ft 619 kts 95°
2026-05-08 02:35 37.85816 -82.32455 35014 ft 619 kts 95°
2026-05-08 02:36 37.85162 -82.21586 35020 ft 618 kts 95°
2026-05-08 02:36 37.84501 -82.10747 35017 ft 618 kts 95°
2026-05-08 02:37 37.83827 -81.99890 35016 ft 618 kts 95°
2026-05-08 02:37 37.83147 -81.89050 35020 ft 618 kts 96°
2026-05-08 02:38 37.82454 -81.78212 35019 ft 618 kts 96°
2026-05-08 02:38 37.81753 -81.67371 35022 ft 618 kts 96°
2026-05-08 02:39 37.81044 -81.56593 35015 ft 619 kts 96°
2026-05-08 02:39 37.80321 -81.45746 35015 ft 619 kts 96°
2026-05-08 02:40 37.79590 -81.34900 35023 ft 619 kts 96°
2026-05-08 02:40 37.78846 -81.24040 35026 ft 619 kts 96°
2026-05-08 02:41 37.78141 -81.13181 35030 ft 620 kts 91°
2026-05-08 02:41 37.78694 -81.02306 35027 ft 619 kts 83°
2026-05-08 02:42 37.79452 -80.91478 35032 ft 618 kts 84°
2026-05-08 02:42 37.80139 -80.80703 35020 ft 619 kts 84°
2026-05-08 02:43 37.80862 -80.69864 35022 ft 618 kts 84°
2026-05-08 02:43 37.81546 -80.59029 35074 ft 618 kts 84°
2026-05-08 02:44 37.82237 -80.48216 35026 ft 615 kts 84°
2026-05-08 02:44 37.82903 -80.37448 35024 ft 613 kts 84°
2026-05-08 02:45 37.83566 -80.26700 35024 ft 612 kts 84°
2026-05-08 02:45 37.84203 -80.16133 35008 ft 611 kts 85°
2026-05-08 02:46 37.84839 -80.05474 34992 ft 612 kts 85°
2026-05-08 02:46 37.85469 -79.94725 34997 ft 613 kts 85°
2026-05-08 02:47 37.86089 -79.83976 34981 ft 612 kts 85°
2026-05-08 02:47 37.86690 -79.73214 34997 ft 614 kts 88°
2026-05-08 02:48 37.87057 -79.62404 35065 ft 614 kts 86°
2026-05-08 02:48 37.87443 -79.51585 35073 ft 614 kts 87°
2026-05-08 02:49 37.87778 -79.40848 35065 ft 615 kts 87°
2026-05-08 02:49 37.88374 -79.30030 35071 ft 616 kts 80°
2026-05-08 02:50 37.89662 -79.19322 35030 ft 615 kts 78°
2026-05-08 02:50 37.90905 -79.08593 34974 ft 615 kts 80°
2026-05-08 02:51 37.91929 -78.99676 34976 ft 618 kts 79°
2026-05-08 02:51 37.93184 -78.88908 34962 ft 617 kts 79°
2026-05-08 02:52 37.94398 -78.78126 34961 ft 618 kts 79°
2026-05-08 02:52 37.95628 -78.67350 34928 ft 618 kts 79°
2026-05-08 02:53 37.96834 -78.56503 34947 ft 621 kts 79°
2026-05-08 02:53 37.98044 -78.45674 34956 ft 621 kts 79°
2026-05-08 02:54 37.99234 -78.34841 34955 ft 621 kts 80°
2026-05-08 02:54 38.00420 -78.24000 34965 ft 621 kts 80°
2026-05-08 02:55 38.03490 -78.08276 34997 ft 603 kts 55°
2026-05-08 02:55 38.05639 -78.03782 35037 ft 590 kts 45°
2026-05-08 02:56 38.08128 -77.99718 35008 ft 579 kts 40°
2026-05-08 02:56 38.13287 -77.91881 34991 ft 583 kts 44°
2026-05-08 02:57 38.17671 -77.83134 34978 ft 595 kts 53°
2026-05-08 02:57 38.21792 -77.74040 34975 ft 590 kts 49°
2026-05-08 02:58 38.26342 -77.65399 34973 ft 588 kts 50°
2026-05-08 02:58 38.30576 -77.56478 34963 ft 587 kts 50°
2026-05-08 02:59 38.34976 -77.47758 34965 ft 585 kts 50°
2026-05-08 02:59 38.39265 -77.38909 34963 ft 586 kts 51°
2026-05-08 03:00 38.43574 -77.30173 35007 ft 586 kts 50°
2026-05-08 03:00 38.47879 -77.21337 34942 ft 586 kts 51°
2026-05-08 03:01 38.52180 -77.12513 34967 ft 585 kts 51°
2026-05-08 03:01 38.56472 -77.03684 34970 ft 585 kts 51°
2026-05-08 03:02 38.60756 -76.94834 34969 ft 585 kts 51°
2026-05-08 03:02 38.65039 -76.85981 34930 ft 586 kts 51°
2026-05-08 03:03 38.69315 -76.77094 34942 ft 585 kts 52°
2026-05-08 03:03 38.71217 -76.72453 34964 ft 594 kts 63°
2026-05-08 03:03 38.72565 -76.67432 34959 ft 599 kts 72°
2026-05-08 03:04 38.74298 -76.57042 34953 ft 597 kts 77°
2026-05-08 03:04 38.75117 -76.51874 34907 ft 586 kts 73°
2026-05-08 03:04 38.76179 -76.46853 34509 ft 580 kts 70°
2026-05-08 03:04 38.77375 -76.41946 34102 ft 575 kts 69°
2026-05-08 03:05 38.78478 -76.37020 33692 ft 573 kts 73°
2026-05-08 03:05 38.79401 -76.32060 33214 ft 570 kts 74°
2026-05-08 03:05 38.80339 -76.27148 32760 ft 565 kts 72°
2026-05-08 03:05 38.81384 -76.22312 32317 ft 560 kts 71°
2026-05-08 03:06 38.82424 -76.17520 31894 ft 556 kts 72°
2026-05-08 03:06 38.83369 -76.12788 31460 ft 552 kts 73°
2026-05-08 03:06 38.84297 -76.08037 31069 ft 547 kts 73°
2026-05-08 03:06 38.85259 -76.03339 30674 ft 542 kts 72°
2026-05-08 03:07 38.86231 -75.98688 30280 ft 537 kts 73°
2026-05-08 03:07 38.87163 -75.94067 29867 ft 533 kts 73°
2026-05-08 03:07 38.88069 -75.89472 29394 ft 529 kts 73°
2026-05-08 03:07 38.89056 -75.84954 28937 ft 522 kts 65°
2026-05-08 03:08 38.90615 -75.80819 28510 ft 508 kts 51°
2026-05-08 03:08 38.92751 -75.77305 28029 ft 490 kts 36°
2026-05-08 03:08 38.95319 -75.74587 27644 ft 468 kts 21°
2026-05-08 03:08 38.98108 -75.72697 27214 ft 451 kts 12°
2026-05-08 03:09 39.00979 -75.71148 26775 ft 445 kts 11°
2026-05-08 03:09 39.03831 -75.69580 26332 ft 446 kts 13°
2026-05-08 03:09 39.06673 -75.68108 25907 ft 433 kts
2026-05-08 03:09 39.09535 -75.67343 25491 ft 411 kts 354°
2026-05-08 03:10 39.12357 -75.67028 25075 ft 404 kts 351°
2026-05-08 03:10 39.15150 -75.66831 24694 ft 402 kts 351°
2026-05-08 03:10 39.17942 -75.66553 24282 ft 402 kts 353°
2026-05-08 03:10 39.20729 -75.66200 23881 ft 401 kts 353°
2026-05-08 03:11 39.23493 -75.65876 23490 ft 398 kts 352°
2026-05-08 03:11 39.26244 -75.65594 23026 ft 395 kts 353°
2026-05-08 03:11 39.28991 -75.64908 22559 ft 413 kts
2026-05-08 03:11 39.31615 -75.63251 22112 ft 427 kts 24°
2026-05-08 03:12 39.34029 -75.60966 21676 ft 431 kts 31°
2026-05-08 03:12 39.36340 -75.58504 21320 ft 429 kts 32°
2026-05-08 03:12 39.38585 -75.55951 20895 ft 434 kts 43°
2026-05-08 03:12 39.40305 -75.52772 20485 ft 440 kts 60°
2026-05-08 03:13 39.41443 -75.49115 20096 ft 439 kts 72°
2026-05-08 03:13 39.42274 -75.45326 19716 ft 436 kts 75°
2026-05-08 03:13 39.43112 -75.41574 19326 ft 433 kts 71°
2026-05-08 03:13 39.44192 -75.37960 18970 ft 429 kts 65°
2026-05-08 03:14 39.45395 -75.34433 18623 ft 426 kts 66°
2026-05-08 03:14 39.46690 -75.31030 17957 ft 417 kts 52°
2026-05-08 03:14 39.48592 -75.28294 17316 ft 403 kts 33°
2026-05-08 03:14 39.50896 -75.26356 16667 ft 388 kts 20°
2026-05-08 03:15 39.53291 -75.24826 16069 ft 381 kts 18°
2026-05-08 03:15 39.55637 -75.23258 15596 ft 376 kts 24°
2026-05-08 03:15 39.57773 -75.21433 15305 ft 367 kts 30°
2026-05-08 03:15 39.59785 -75.19516 15023 ft 348 kts 28°
2026-05-08 03:16 39.61729 -75.17800 14734 ft 328 kts 25°
2026-05-08 03:16 39.63612 -75.16256 14252 ft 314 kts 25°
2026-05-08 03:16 39.65419 -75.14744 13601 ft 303 kts 26°
2026-05-08 03:16 39.67131 -75.13257 12963 ft 291 kts 26°
2026-05-08 03:17 39.68787 -75.11823 12290 ft 281 kts 26°
2026-05-08 03:17 39.70394 -75.10448 11631 ft 272 kts 26°
2026-05-08 03:17 39.71951 -75.09115 11005 ft 264 kts 26°
2026-05-08 03:17 39.73392 -75.07676 10349 ft 262 kts 42°
2026-05-08 03:18 39.74597 -75.05941 9827 ft 256 kts 41°
2026-05-08 03:18 39.75778 -75.04243 9444 ft 249 kts 41°
2026-05-08 03:18 39.76916 -75.02622 9167 ft 236 kts 41°
2026-05-08 03:18 39.78009 -75.01073 8778 ft 229 kts 41°
2026-05-08 03:19 39.79076 -74.99561 8358 ft 225 kts 41°
2026-05-08 03:19 39.80126 -74.98070 7930 ft 222 kts 42°
2026-05-08 03:19 39.81162 -74.96593 7510 ft 219 kts 42°
2026-05-08 03:19 39.82183 -74.95140 7087 ft 216 kts 43°
2026-05-08 03:20 39.83183 -74.93699 6720 ft 212 kts 46°
2026-05-08 03:20 39.83794 -74.91997 6376 ft 211 kts 72°
2026-05-08 03:20 39.84158 -74.90159 6000 ft 208 kts 73°
2026-05-08 03:20 39.84517 -74.88346 5612 ft 206 kts 72°
2026-05-08 03:21 39.84932 -74.86587 5203 ft 201 kts 58°
2026-05-08 03:21 39.85910 -74.85379 4790 ft 194 kts 20°
2026-05-08 03:21 39.87210 -74.85190 4383 ft 188 kts 348°
2026-05-08 03:21 39.88460 -74.85547 4132 ft 179 kts 343°
2026-05-08 03:22 39.89656 -74.85954 3850 ft 176 kts 343°
2026-05-08 03:22 39.90752 -74.86605 3522 ft 173 kts 322°
2026-05-08 03:22 39.91653 -74.87633 3231 ft 172 kts 314°
2026-05-08 03:22 39.92305 -74.88909 3028 ft 164 kts 295°
2026-05-08 03:23 39.92825 -74.90282 3024 ft 170 kts 295°
2026-05-08 03:23 39.93174 -74.91710 2972 ft 168 kts 270°
2026-05-08 03:23 39.93224 -74.93231 2996 ft 170 kts 266°
2026-05-08 03:23 39.92964 -74.94716 3016 ft 171 kts 263°
2026-05-08 03:24 39.92685 -74.96208 3027 ft 170 kts 257°
2026-05-08 03:24 39.92412 -74.97712 3015 ft 171 kts 257°
2026-05-08 03:24 39.92115 -74.99209 3024 ft 170 kts 257°
2026-05-08 03:24 39.91820 -75.00686 3026 ft 170 kts 258°
2026-05-08 03:25 39.91525 -75.02173 3024 ft 169 kts 257°
2026-05-08 03:25 39.91228 -75.03667 2928 ft 170 kts 257°
2026-05-08 03:25 39.90936 -75.05140 2725 ft 165 kts 257°
2026-05-08 03:25 39.90650 -75.06583 2526 ft 165 kts 257°
2026-05-08 03:26 39.90365 -75.08016 2294 ft 158 kts 257°
2026-05-08 03:26 39.90102 -75.09337 2064 ft 143 kts 256°
2026-05-08 03:26 39.89863 -75.10544 1849 ft 133 kts 256°
2026-05-08 03:26 39.89635 -75.11687 1584 ft 130 kts 256°
2026-05-08 03:27 39.89402 -75.12853 1368 ft 136 kts 256°
2026-05-08 03:27 39.89164 -75.14057 1287 ft 138 kts 256°
2026-05-08 03:27 39.88922 -75.15276 1147 ft 138 kts 255°
2026-05-08 03:27 39.88683 -75.16479 952 ft 137 kts 255°
2026-05-08 03:28 39.88437 -75.17686 784 ft 137 kts 255°
2026-05-08 03:28 39.88204 -75.18861 601 ft 136 kts 254°
2026-05-08 03:28 39.87970 -75.20041 416 ft 134 kts 253°
2026-05-08 03:28 39.87741 -75.21201 239 ft 132 kts 253°
2026-05-08 03:29 39.87514 -75.22326 56 ft 124 kts 253°
2026-05-08 03:29 39.87313 -75.23324 26 ft 100 kts 256°
2026-05-08 03:29 39.87184 -75.23994 32 ft 62 kts 255°
2026-05-08 03:29 39.87083 -75.24478 30 ft 48 kts 258°
2026-05-08 03:30 39.86979 -75.24753 26 ft 11 kts 169°
2026-05-08 03:30 39.86859 -75.24900 28 ft 19 kts 222°
2026-05-08 03:31 39.86562 -75.24887 31 ft 23 kts 167°
2026-05-08 03:31 39.86336 -75.24862 33 ft 8 kts 230°
2026-05-08 03:32 39.86328 -75.24904 32 ft 3 kts 281°
2026-05-08 03:32 39.86336 -75.24917 32 ft 0 kts 315°